This demonstration page uses our WeatherBlox Daily Observations layout. Learn more.

Left ArrowRight Arrow

44.89941, -97.11507

Hourly Observations for November 24, 2020

Temp ( °F °C ) Dew Point ( °F °C ) Humidity (%) Winds ( mph kmh ) Pressure ( in mb ) Visibility ( mi km ) Precip ( " mm )
12:53 am 00:53 Cloudy with Mist and Fog 34 1.1 33 0.6 97 97 SSE 14 22 29.91 1013 4 6 0.00 0.00
1:53 am 01:53 Cloudy with Mist and Fog 34 1.1 33 0.6 97 97 SSE 15 24 29.89 1012 6 10 0.00 0.00
2:53 am 02:53 Cloudy with Mist and Fog 34 1.1 34 1.1 100 100 SSE 15 24 29.88 1012 4 6 0.00 0.00
3:53 am 03:53 Cloudy with Mist and Fog 34 1.1 34 1.1 100 100 S 15 24 29.86 1011 4 6 0.00 0.00
4:53 am 04:53 Cloudy with Mist and Fog 34 1.1 34 1.1 100 100 S 14 22 29.85 1011 3 5 0.00 0.00
5:32 am 05:32 Cloudy with Mist and Fog 34 1.1 34 1.1 100 100 S 13 20 29.88 1012 3 4 0.00 0.00
5:51 am 05:51 Cloudy with Mist and Fog 34 1 34 1 100 100 S 12 19 29.87 1012 3 5 0.00 0.00
5:53 am 05:53 Cloudy with Mist and Fog 34 1.1 34 1.1 100 100 S 12 19 29.85 1011 3 5 0.00 0.00
6:53 am 06:53 Cloudy with Mist and Fog 34 1.1 34 1.1 100 100 S 10 17 29.85 1011 6 10 0.00 0.00
7:53 am 07:53 Cloudy with Mist and Fog 35 1.7 35 1.7 100 100 S 12 19 29.85 1011 5 8 0.00 0.00
8:22 am 08:22 Cloudy with Mist and Fog 35 1.7 35 1.7 100 100 SSW 10 17 29.88 1012 3 4 0.00 0.00
8:36 am 08:36 Cloudy with Mist and Fog 35 1.7 35 1.7 100 100 SSW 10 17 29.88 1012 2 2 0.00 0.00
8:49 am 08:49 Cloudy with Mist and Fog 36 2 36 2 100 100 SSW 12 19 29.87 1012 1 2 0.00 0.00
8:53 am 08:53 Cloudy with Mist and Fog 35 1.7 35 1.7 100 100 SSW 12 19 29.85 1011 1 2 0.00 0.00
9:30 am 09:30 Cloudy with Mist and Fog 35 1.7 35 1.7 100 100 S 12 19 29.87 1011 2 3 0.00 0.00
9:41 am 09:41 Cloudy with Mist and Fog 35 1.7 35 1.7 100 100 SSW 10 17 29.88 1012 4 6 0.00 0.00
9:53 am 09:53 Cloudy with Mist and Fog 36 2.2 36 2.2 100 100 SW 9 15 29.85 1011 4 6 0.00 0.00
10:37 am 10:37 Cloudy 37 2.8 36 2.2 96 96 SW 12 19 29.86 1011 7 11 0.00 0.00
10:53 am 10:53 Cloudy 37 2.8 36 2.2 96 96 SW 9 15 29.84 1011 9 14 0.00 0.00
11:16 am 11:16 Cloudy 37 2.8 36 2.2 96 96 SW 9 15 29.86 1011 10 16 0.00 0.00
11:30 am 11:30 Cloudy 36 2.2 35 1.7 97 97 W 10 17 29.86 1011 7 11 0.00 0.00
11:53 am 11:53 Cloudy 36 2.2 35 1.7 97 97 W 10 17 29.85 1011 10 16 0.00 0.00
12:53 pm 12:53 Cloudy 36 2.2 33 0.6 89 89 WNW 13 20 29.85 1011 10 16 0.00 0.00
1:16 pm 13:16 Cloudy 35 1.7 33 0.6 93 93 WNW 12 19 29.87 1011 9 14 0.00 0.00
1:53 pm 13:53 Cloudy 34 1.1 32 0 92 92 WNW 9 15 29.85 1011 10 16 0.00 0.00
2:53 pm 14:53 Cloudy 35 1.7 33 0.6 93 93 NW 9 15 29.87 1011 9 14 0.00 0.00
3:07 pm 15:07 Cloudy 35 1.7 33 0.6 93 93 NW 13 20 29.90 1012 10 16 0.00 0.00
3:23 pm 15:23 Cloudy 34 1.1 31 -0.6 89 89 NW 14 22 29.89 1012 9 14 0.00 0.00
3:53 pm 15:53 Cloudy 32 0 30 -1.1 92 92 NW 15 24 29.89 1012 8 13 0.00 0.00
4:21 pm 16:21 Cloudy with Mist and Fog 29 -1.7 29 -1.7 100 100 NW 14 22 29.94 1014 3 4 0.00 0.00
4:33 pm 16:33 Cloudy with Mist and Fog 29 -1.7 28 -2.2 96 96 N 14 22 29.94 1014 2 2 0.00 0.00
4:53 pm 16:53 Cloudy with Mist and Fog 28 -2.2 27 -2.8 96 96 NNW 15 24 29.91 1013 2 3 0.00 0.00
5:08 pm 17:08 Cloudy with Mist and Fog 27 -2.8 27 -2.8 100 100 NNW 15 24 29.97 1015 1 2 0.00 0.00
5:14 pm 17:14 Cloudy with Mist and Fog 27 -2.8 27 -2.8 100 100 NNW 17 28 29.97 1015 2 3 0.00 0.00
5:53 pm 17:53 Cloudy with Mist and Fog 26 -3.3 26 -3.3 100 100 NNW 18 30 29.94 1014 2 3 0.00 0.00
6:19 pm 18:19 Cloudy with Mist and Fog 26 -3.3 26 -3.3 100 100 N 13 20 29.98 1015 2 3 0.00 0.00
6:45 pm 18:45 Cloudy with Mist and Fog 26 -3.3 25 -3.9 96 96 NNW 16 26 29.98 1015 3 5 0.00 0.00
6:53 pm 18:53 Cloudy with Mist and Fog 26 -3.3 25 -3.9 96 96 NNW 16 26 29.94 1014 3 5 0.00 0.00
7:03 pm 19:03 Cloudy with Mist and Fog 25 -3.9 25 -3.9 100 100 N 18 30 29.99 1015 3 4 0.00 0.00
7:53 pm 19:53 Cloudy with Mist and Fog 25 -3.9 25 -3.9 100 100 N 12 19 29.95 1014 3 4 0.00 0.00
8:16 pm 20:16 Cloudy with Mist and Fog 26 -3.3 25 -3.9 96 96 N 10 17 29.99 1016 3 5 0.00 0.00
8:53 pm 20:53 Cloudy with Mist and Fog 26 -3.3 26 -3.3 100 100 N 7 11 29.96 1015 5 8 0.00 0.00
9:27 pm 21:27 Cloudy with Mist and Fog 26 -3.3 25 -3.9 96 96 NNW 12 19 30.01 1016 6 10 0.00 0.00
9:53 pm 21:53 Cloudy with Mist and Fog 26 -3.3 25 -3.9 96 96 NNE 10 17 29.98 1015 5 8 0.00 0.00
10:11 pm 22:11 Cloudy with Mist and Fog 26 -3.3 25 -3.9 96 96 N 7 11 30.02 1017 5 8 0.00 0.00
10:53 pm 22:53 Cloudy with Mist and Fog 27 -2.8 26 -3.3 96 96 NNW 5 7 29.98 1015 6 10 0.00 0.00
11:53 pm 23:53 Cloudy with Mist and Fog 27 -2.8 26 -3.3 96 96 N 5 7 29.97 1015 6 10 0.00 0.00

Powered by AerisWeather